HST
1 20580U 90037B   25003.86505663  .00009987  00000-0  41386-3 0  9991
2 20580  28.4687  76.3606 0002757  84.8686 275.2222 15.22196173707598
ISS (ZARYA)
1 25544U 98067A   25004.00595347  .00025742  00000-0  44575-3 0  9992
2 25544  51.6402  40.3677 0006188  42.3179 153.2056 15.50725948489690
CXO
1 25867U 99040B   25005.48161696  .00000610  00000-0  00000+0 0  9999
2 25867  45.7878 138.5273 8656211 305.8213   0.4036  0.37805792 26483